Location: Caltech
(34.1382°N, 118.1253°W)
Time: 17:42:25
(UTC-07:00)

NOAA 19 - Visible Passes

Search period start: 22 July 2017 00:00
Search period end: 01 August 2017 00:00
Orbit: 841 x 862 km, 99.1° (Epoch: 22 July)

Date Brightness Start Highest point End Pass type
(mag) Time Alt. Az. Time Alt. Az. Time Alt. Az.
22 Jul 7.2 03:29:43 10° NE 03:33:48 21° E 03:37:52 10° SE visible
22 Jul 5.7 05:09:29 10° N 05:14:35 41° WNW 05:19:39 10° SW visible
23 Jul 7.6 03:18:54 10° NE 03:22:13 16° E 03:25:31 10° SE visible
23 Jul 5.4 04:57:50 10° N 05:03:08 53° WNW 05:08:26 10° SSW visible
24 Jul 7.7 03:08:33 10° ENE 03:10:36 12° E 03:12:39 10° ESE visible
24 Jul 5.2 04:46:15 10° N 04:51:42 69° WNW 04:57:00 11° SSW visible
25 Jul 5.2 04:34:44 10° NNE 04:40:13 88° WNW 04:45:18 12° SSW visible
26 Jul 5.4 04:23:16 10° NNE 04:28:44 72° ESE 04:33:38 13° S visible
27 Jul 5.8 04:11:52 10° NNE 04:17:13 55° E 04:21:56 13° S visible
28 Jul 6.2 04:00:32 10° NNE 04:05:42 42° E 04:10:15 13° SSE visible
29 Jul 6.6 03:49:16 10° NE 03:54:09 33° E 03:58:33 12° SSE visible
29 Jul 6.3 05:30:07 10° NNW 05:34:39 27° WNW 05:39:10 10° SW visible
30 Jul 7.0 03:38:08 10° NE 03:42:35 25° E 03:46:52 11° SSE visible
30 Jul 6.0 05:18:21 10° N 05:23:15 35° WNW 05:28:08 10° SW visible
31 Jul 7.3 03:27:09 10° NE 03:31:00 19° E 03:34:51 10° SE visible
31 Jul 5.6 05:06:40 10° N 05:11:50 45° WNW 05:16:58 10° SW visible
